When you browse on this site, cookies collect data to enhance your experience and personalize the content and advertising you see.
Visit our Privacy Policy to learn more. By continuing to use the site, you agree to this use of cookies and data.
  • In United Kingdom
  • List of Countries
  • For 7 days
  • Water Temperature
  • Weather Map
  • Weather Widgets
  • user-avatar
    Login

    Hourly Weather Gyal

    Today, 19 September, Thursday

    Time Temperature Precipitation Wind Pressure Humidity
    00:00 +12°C° 0 mm 2 mps 757 mmHg 47%
    01:00 +10°C° 0 mm 2 mps 757 mmHg 48%
    02:00 +10°C° 0 mm 2 mps 757 mmHg 50%
    03:00 +10°C° 0 mm 2 mps 757 mmHg 51%
    04:00 +10°C° 0 mm 2 mps 757 mmHg 53%
    05:00 +10°C° 0 mm 2 mps 757 mmHg 53%
    06:00 +12°C° 0 mm 2 mps 757 mmHg 53%
    07:00 +12°C° 0 mm 2 mps 757 mmHg 54%
    08:00 +13°C° 0 mm 3 mps 757 mmHg 49%
    09:00 +14°C° 0 mm 4 mps 757 mmHg 44%
    10:00 +16°C° 0 mm 5 mps 758 mmHg 39%
    11:00 +16°C° 0 mm 5 mps 757 mmHg 36%
    12:00 +18°C° 0 mm 4 mps 757 mmHg 33%
    13:00 +19°C° 0 mm 4 mps 757 mmHg 31%
    14:00 +19°C° 0 mm 5 mps 757 mmHg 31%
    15:00 +17°C° 0 mm 5 mps 757 mmHg 32%
    16:00 +17°C° 0 mm 5 mps 757 mmHg 32%
    17:00 +17°C° 0 mm 4 mps 757 mmHg 36%
    18:00 +14°C° 0 mm 4 mps 757 mmHg 40%
    19:00 +13°C° 0 mm 3 mps 757 mmHg 45%
    20:00 +12°C° 0 mm 3 mps 758 mmHg 47%
    21:00 +12°C° 0 mm 3 mps 758 mmHg 49%
    22:00 +11°C° 0 mm 3 mps 758 mmHg 50%
    23:00 +11°C° 0 mm 3 mps 758 mmHg 53%

    Tomorrow, 20 September, Friday

    Time Temperature Precipitation Wind Pressure Humidity
    00:00 +10°C° 0 mm 3 mps 758 mmHg 56%
    01:00 +10°C° 0 mm 3 mps 758 mmHg 58%
    02:00 +9°C° 0 mm 3 mps 758 mmHg 61%
    03:00 +9°C° 0 mm 2 mps 758 mmHg 64%
    04:00 +8°C° 0 mm 2 mps 758 mmHg 67%
    05:00 +9°C° 0 mm 2 mps 758 mmHg 66%
    06:00 +9°C° 0 mm 2 mps 759 mmHg 64%
    07:00 +10°C° 0 mm 2 mps 759 mmHg 63%
    08:00 +13°C° 0 mm 1 mps 759 mmHg 55%
    09:00 +15°C° 0 mm 1 mps 759 mmHg 48%
    10:00 +18°C° 0 mm 1 mps 760 mmHg 41%
    11:00 +18°C° 0 mm 1 mps 759 mmHg 37%
    12:00 +18°C° 0 mm 2 mps 759 mmHg 32%
    13:00 +19°C° 0 mm 2 mps 759 mmHg 28%
    14:00 +19°C° 0 mm 2 mps 758 mmHg 27%
    15:00 +19°C° 0 mm 2 mps 758 mmHg 26%
    16:00 +20°C° 0 mm 1 mps 758 mmHg 25%
    17:00 +19°C° 0 mm 1 mps 758 mmHg 29%
    18:00 +16°C° 0 mm 1 mps 758 mmHg 32%
    19:00 +14°C° 0 mm 1 mps 758 mmHg 35%
    20:00 +14°C° 0 mm 1 mps 759 mmHg 37%
    21:00 +13°C° 0 mm 1 mps 759 mmHg 39%
    22:00 +13°C° 0 mm 1 mps 759 mmHg 41%
    23:00 +12°C° 0 mm 1 mps 759 mmHg 43%

    Day after tomorrow, 21 September, Saturday

    Time Temperature Precipitation Wind Pressure Humidity
    00:00 +12°C° 0 mm 1 mps 759 mmHg 45%
    01:00 +11°C° 0 mm 1 mps 759 mmHg 47%
    02:00 +11°C° 0 mm 1 mps 759 mmHg 48%
    03:00 +10°C° 0 mm 1 mps 759 mmHg 50%
    04:00 +10°C° 0 mm 1 mps 759 mmHg 51%
    05:00 +10°C° 0 mm 1 mps 759 mmHg 50%
    06:00 +11°C° 0 mm 1 mps 759 mmHg 49%
    07:00 +11°C° 0 mm 1 mps 759 mmHg 48%
    08:00 +13°C° 0 mm 1 mps 759 mmHg 43%
    09:00 +15°C° 0 mm 2 mps 759 mmHg 38%
    10:00 +17°C° 0 mm 2 mps 759 mmHg 34%
    11:00 +18°C° 0 mm 2 mps 759 mmHg 31%
    12:00 +20°C° 0 mm 2 mps 759 mmHg 29%
    13:00 +21°C° 0 mm 2 mps 758 mmHg 26%
    14:00 +21°C° 0 mm 2 mps 758 mmHg 26%
    15:00 +21°C° 0 mm 2 mps 757 mmHg 26%
    16:00 +21°C° 0 mm 2 mps 756 mmHg 25%
    17:00 +19°C° 0 mm 2 mps 756 mmHg 29%
    18:00 +17°C° 0 mm 2 mps 756 mmHg 32%
    19:00 +16°C° 0 mm 2 mps 756 mmHg 35%
    20:00 +15°C° 0 mm 2 mps 756 mmHg 36%
    21:00 +15°C° 0 mm 2 mps 756 mmHg 38%
    22:00 +14°C° 0 mm 2 mps 756 mmHg 39%
    23:00 +13°C° 0 mm 2 mps 756 mmHg 40%

    22 September, Sunday

    Time Temperature Precipitation Wind Pressure Humidity
    00:00 +13°C° 0 mm 2 mps 755 mmHg 41%
    01:00 +12°C° 0 mm 2 mps 755 mmHg 43%
    02:00 +12°C° 0 mm 2 mps 755 mmHg 44%
    03:00 +12°C° 0 mm 2 mps 755 mmHg 45%
    04:00 +10°C° 0 mm 2 mps 754 mmHg 46%
    05:00 +11°C° 0 mm 3 mps 754 mmHg 46%
    06:00 +11°C° 0 mm 3 mps 754 mmHg 45%
    07:00 +12°C° 0 mm 3 mps 754 mmHg 45%
    08:00 +14°C° 0 mm 4 mps 754 mmHg 40%
    09:00 +17°C° 0 mm 4 mps 754 mmHg 35%
    10:00 +19°C° 0 mm 4 mps 753 mmHg 30%
    11:00 +21°C° 0 mm 5 mps 753 mmHg 28%
    12:00 +22°C° 0 mm 5 mps 752 mmHg 25%
    13:00 +25°C° 0 mm 5 mps 752 mmHg 22%
    14:00 +23°C° 0 mm 4 mps 751 mmHg 24%
    15:00 +23°C° 0 mm 4 mps 750 mmHg 26%
    16:00 +22°C° 0 mm 3 mps 750 mmHg 27%
    17:00 +22°C° 0 mm 3 mps 750 mmHg 28%
    18:00 +21°C° 0 mm 2 mps 750 mmHg 28%
    19:00 +21°C° 0 mm 2 mps 750 mmHg 29%
    20:00 +20°C° 0 mm 3 mps 749 mmHg 37%
    21:00 +20°C° 0 mm 3 mps 749 mmHg 44%
    22:00 +19°C° 0 mm 4 mps 749 mmHg 52%
    23:00 +19°C° 0.2 mm 4 mps 749 mmHg 61%

    23 September, Monday

    Time Temperature Precipitation Wind Pressure Humidity
    00:00 +18°C° 0.2 mm 4 mps 749 mmHg 69%
    01:00 +18°C° 0.2 mm 4 mps 748 mmHg 78%
    02:00 +18°C° 0.1 mm 4 mps 748 mmHg 75%
    03:00 +17°C° 0.1 mm 3 mps 748 mmHg 72%
    04:00 +17°C° 0.1 mm 3 mps 748 mmHg 69%
    05:00 +17°C° 0.1 mm 3 mps 748 mmHg 68%
    06:00 +17°C° 0.1 mm 3 mps 747 mmHg 67%
    07:00 +17°C° 0.1 mm 3 mps 747 mmHg 66%
    08:00 +18°C° 0.1 mm 2 mps 747 mmHg 64%
    09:00 +18°C° 0.1 mm 2 mps 747 mmHg 61%
    10:00 +19°C° 0.1 mm 2 mps 747 mmHg 58%
    11:00 +20°C° 0.2 mm 2 mps 747 mmHg 59%
    12:00 +22°C° 0.2 mm 1 mps 747 mmHg 60%
    13:00 +22°C° 0.2 mm 1 mps 746 mmHg 60%
    14:00 +21°C° 0 mm 2 mps 746 mmHg 59%
    15:00 +21°C° 0 mm 2 mps 746 mmHg 59%
    16:00 +21°C° 0 mm 2 mps 746 mmHg 58%
    17:00 +21°C° 0 mm 2 mps 746 mmHg 62%
    18:00 +20°C° 0 mm 3 mps 746 mmHg 66%
    19:00 +19°C° 0 mm 3 mps 747 mmHg 70%
    20:00 +18°C° 0 mm 4 mps 747 mmHg 71%
    21:00 +18°C° 0 mm 4 mps 747 mmHg 73%
    22:00 +16°C° 0 mm 5 mps 747 mmHg 74%
    23:00 +16°C° 0.1 mm 5 mps 747 mmHg 77%

    24 September, Tuesday

    Time Temperature Precipitation Wind Pressure Humidity
    00:00 +16°C° 0.1 mm 5 mps 747 mmHg 79%
    01:00 +15°C° 0.1 mm 5 mps 747 mmHg 82%
    02:00 +15°C° 0 mm 5 mps 747 mmHg 81%
    03:00 +15°C° 0 mm 5 mps 747 mmHg 81%
    04:00 +15°C° 0 mm 5 mps 747 mmHg 81%
    05:00 +15°C° 0 mm 5 mps 747 mmHg 79%
    06:00 +15°C° 0 mm 6 mps 747 mmHg 77%
    07:00 +15°C° 0 mm 6 mps 747 mmHg 76%
    08:00 +16°C° 0 mm 7 mps 748 mmHg 70%
    09:00 +17°C° 0 mm 7 mps 748 mmHg 64%
    10:00 +18°C° 0 mm 8 mps 748 mmHg 58%
    11:00 +20°C° 0 mm 8 mps 748 mmHg 55%
    12:00 +20°C° 0 mm 8 mps 748 mmHg 52%
    13:00 +21°C° 0 mm 8 mps 748 mmHg 49%
    14:00 +20°C° 0 mm 7 mps 748 mmHg 49%
    15:00 +20°C° 0 mm 6 mps 748 mmHg 50%
    16:00 +20°C° 0 mm 5 mps 748 mmHg 50%
    17:00 +19°C° 0 mm 5 mps 748 mmHg 53%
    18:00 +18°C° 0 mm 4 mps 748 mmHg 55%
    19:00 +17°C° 0 mm 4 mps 748 mmHg 58%
    20:00 +17°C° 0 mm 3 mps 749 mmHg 61%
    21:00 +16°C° 0 mm 3 mps 749 mmHg 64%
    22:00 +15°C° 0 mm 2 mps 749 mmHg 67%
    23:00 +15°C° 0 mm 2 mps 749 mmHg 68%
    Show more